This is the latest recevied weather packets stored in our database for station/object KC5DAQ-28. If no packets are shown the sender has not sent any weather packets the latest 10 day(s).
| Time | Temp. | Humidity | Pressure | Rain* | Wind** | Luminosity | Snow |
|---|---|---|---|---|---|---|---|
| 1788643923 | 29.44° C | 72% | 1005.3 hPa | 0 mm | - | 338 W/m² | - |
| 1788643864 | 29.44° C | 72% | 1005.4 hPa | 0 mm | - | 304 W/m² | - |
| 1788643802 | 29.44° C | 72% | 1005.4 hPa | 0 mm | - | 304 W/m² | - |
| 1788643743 | 29.44° C | 71% | 1005.5 hPa | 0 mm | - | 304 W/m² | - |
| 1788643684 | 29.44° C | 71% | 1005.5 hPa | 0 mm | - | 304 W/m² | - |
| 1788643599 | 29.44° C | 71% | 1005.5 hPa | 0 mm | - | 301 W/m² | - |
| 1788643532 | 30° C | 73% | 1005.4 hPa | 0 mm | - | 473 W/m² | - |
| 1788643474 | 30° C | 73% | 1005.5 hPa | 0 mm | - | 473 W/m² | - |
| 1788643412 | 30° C | 73% | 1005.4 hPa | 0 mm | - | 473 W/m² | - |
| 1788643343 | 30° C | 73% | 1005.4 hPa | 0 mm | - | 473 W/m² | - |
| 1788643277 | 30° C | 73% | 1005.4 hPa | 0 mm | - | 473 W/m² | - |
| 1788643215 | 30° C | 73% | 1005.5 hPa | 0 mm | - | 473 W/m² | - |
| 1788643155 | 29.44° C | 73% | 1005.6 hPa | 0 mm | - | 473 W/m² | - |
| 1788643095 | 29.44° C | 73% | 1005.8 hPa | 0 mm | - | 438 W/m² | - |
| 1788643035 | 30° C | 73% | 1005.7 hPa | 0 mm | - | 345 W/m² | - |
| 1788642977 | 30° C | 73% | 1005.8 hPa | 0 mm | - | 258 W/m² | - |
| 1788642952 | 30° C | 71% | 1005.7 hPa | 0 mm | - | 258 W/m² | - |
| 1788642857 | 30° C | 71% | 1005.7 hPa | 0 mm | - | 258 W/m² | - |
| 1788642797 | 30° C | 71% | 1005.7 hPa | 0 mm | - | 258 W/m² | - |
| 1788642737 | 30° C | 71% | 1005.7 hPa | 0 mm | - | 255 W/m² | - |
| 1788642676 | 30.56° C | 71% | 1005.8 hPa | 0 mm | - | 255 W/m² | - |
| 1788642617 | 30.56° C | 71% | 1005.8 hPa | 0 mm | - | 255 W/m² | - |
| 1788642556 | 30.56° C | 71% | 1005.9 hPa | 0 mm | - | 258 W/m² | - |
| 1788642495 | 31.11° C | 70% | 1005.9 hPa | 0 mm | - | 229 W/m² | - |
| 1788642436 | 31.11° C | 69% | 1005.9 hPa | 0 mm | - | 229 W/m² | - |
* Rain latest hour (hover to see other rain measurements)
** Current wind speed in m/s (hover to see current wind gust speed)